Location: Newark
(22.3060°N, 114.2134°E)
Time: 08:17:26
(UTC+00:00)

deb Explorer IX - Visible Passes

Search period start: 24 July 2021 00:00
Search period end: 03 August 2021 00:00
Orbit: 542 x 1096 km, 38.8° (Epoch: 23 July)

Date Brightness Start Highest point End Pass type
(mag) Time Alt. Az. Time Alt. Az. Time Alt. Az.
24 Jul ? 12:10:38 10° NW 12:16:28 26° NNE 12:22:23 10° ENE visible
24 Jul ? 13:57:32 10° NW 14:03:56 59° N 14:03:56 59° N visible
25 Jul ? 11:46:31 10° NW 11:52:16 26° NNE 11:58:11 10° ENE visible
25 Jul ? 13:33:20 10° NW 13:40:32 63° NNE 13:40:50 62° NE visible
25 Jul ? 15:21:13 10° WNW 15:22:03 13° WNW 15:22:03 13° WNW visible
26 Jul ? 11:22:25 10° NW 11:28:04 26° NNE 11:33:56 10° ENE visible
26 Jul ? 13:09:09 10° NW 13:16:18 62° NNE 13:17:48 52° ENE visible
26 Jul ? 14:56:58 10° WNW 14:59:00 19° W 14:59:00 19° W visible
27 Jul ? 12:44:58 10° NW 12:52:04 62° NNE 12:54:47 39° E visible
27 Jul ? 14:32:44 10° WNW 14:36:00 25° W 14:36:00 25° W visible
28 Jul ? 12:20:49 10° NW 12:27:48 62° NNE 12:31:50 28° ESE visible
28 Jul ? 14:08:29 10° WNW 14:13:03 32° WSW 14:13:03 32° WSW visible
29 Jul ? 11:56:39 10° NW 12:03:32 62° NNE 12:08:57 19° ESE visible
29 Jul ? 13:44:15 10° WNW 13:50:09 37° SW 13:50:09 37° SW visible
30 Jul ? 11:32:30 10° NW 11:39:15 61° NNE 11:46:06 12° ESE visible
30 Jul ? 13:20:01 10° WNW 13:26:32 38° SW 13:27:20 37° SSW visible
31 Jul ? 12:55:49 10° WNW 13:02:15 38° SW 13:04:33 31° S visible
01 Aug ? 12:31:36 10° WNW 12:37:57 38° SW 12:41:51 22° SSE visible
02 Aug ? 12:07:25 10° WNW 12:13:38 38° SW 12:19:12 14° SSE visible
